Location: Due Maest�
(44.6667°N, 10.6500°E)
Time: 15:03:01
(UTC+00:00)

Daily predictions for brighter satellites

Satellite Brightness Start Highest point End
(mag) Time Altitude Azimuth Time Altitude Azimuth Time Altitude Azimuth
Cosmos 909 Rocket 4.1 18:33:41 10° SSW 18:39:55 58° ESE 18:46:10 10° NE
Cosmos 405 Rocket 3.7 18:38:27 10° N 18:42:00 30° ENE 18:45:30 10° SE
Cosmos 2237 Rocket 3.0 18:38:11 10° NNW 18:43:22 36° NE 18:48:30 10° ESE
Helios 1A Rocket 3.1 18:41:06 10° S 18:45:10 78° WSW 18:49:18 10° NNW
Cosmos 1818 3.6 18:41:02 10° SSW 18:46:28 84° ESE 18:51:59 10° NE
DMSP B5D2-2 4.1 18:43:36 10° NNE 18:48:53 85° ESE 18:54:09 10° SSW
H-2A R/B 4.2 18:45:08 10° SSW 18:49:22 27° W 18:53:34 10° NW
Cosmos 1892 3.7 18:49:38 10° NNW 18:53:18 49° W 18:56:58 10° S
Cosmos 1825 2.1 18:51:08 10° N 18:54:55 74° E 18:58:41 10° SSE
MetOp-A 4.2 18:52:04 10° SSE 18:57:26 89° W 19:02:49 10° NNW
Cosmos 2227 Rocket 3.1 18:53:21 10° SSE 18:57:57 26° ESE 19:02:35 10° NE
Exosat Rocket 3.7 18:52:14 10° NNW 18:58:31 81° ENE 19:03:33 10° SSE
Abrixas rocket 2.1 18:57:36 10° W 18:59:03 30° NNW 19:00:31 10° NE
ATLAS 2AS CENTAUR R/B 3.9 18:52:30 10° WSW 19:00:16 56° NW 19:07:52 10° NNE
BREEZE-M DEB (TANK) 4.1 18:57:40 10° W 19:00:37 63° NNW 19:07:58 10° ENE
Cosmos 1092 Rocket 4.2 18:55:42 10° N 19:01:58 80° W 19:08:07 10° S
Cosmos 2297 Rocket 2.7 18:59:18 10° S 19:04:28 38° ESE 19:09:39 10° NE
Cosmos 2058 2.9 19:00:22 10° N 19:04:34 87° E 19:08:43 10° S
FALCON 9 DEB 3.5 19:03:07 10° SSW 19:05:54 33° SE 19:08:42 10° ENE
Cosmos 1633 3.8 19:04:13 10° NNE 19:07:12 24° ENE 19:09:15 15° ESE
Lacrosse 5 rocket 4.0 19:05:18 10° NW 19:07:50 15° N 19:10:26 10° NE
FALCON 9 DEB 3.1 19:07:40 10° SW 19:10:34 45° SE 19:13:28 10° ENE
Resurs 01 Rocket 2.5 19:08:36 13° SE 19:12:00 33° ENE 19:16:01 10° N
Cosmos 2219 3.6 19:08:23 10° S 19:13:35 41° ESE 19:18:49 10° NE
Resurs 1-3 3.7 19:09:23 10° SSE 19:13:40 57° ENE 19:17:59 10° N
Genesis I 4.2 19:11:18 10° NNW 19:15:00 35° NE 19:17:40 17° ESE
BREEZE-M DEB (TANK) 4.0 19:12:06 10° W 19:15:54 64° N 19:29:01 10° ENE
Cosmos 2333 Rocket 3.6 19:11:58 10° NW 19:17:12 37° WSW 19:22:23 10° S
SJ-6B 3.0 19:13:57 10° S 19:17:39 69° W 19:21:26 10° NNW
Cosmos 2084 Rocket 3.6 19:18:09 10° S 19:21:52 39° ESE 19:25:38 10° NE
Cosmos 389 Rocket 2.4 19:18:45 10° S 19:22:15 75° E 19:25:50 10° NNE
Cosmos 1190 Rocket 4.4 19:17:32 10° S 19:22:24 41° ESE 19:27:16 10° NE
FALCON 9 DEB 2.7 19:19:37 10° SW 19:22:37 64° SE 19:25:38 10° ENE
ERS-2 4.1 19:20:11 10° N 19:23:28 32° WNW 19:26:44 10° SW
Ariane Rocket 3.0 19:18:59 10° SSE 19:24:02 86° ENE 19:29:07 10° NNW
Cosmos 614 Rocket 4.1 19:20:48 10° SSW 19:25:56 77° WNW 19:31:03 10° NNE
Cosmos 2251 Rocket 4.3 19:22:29 10° SW 19:27:45 56° WNW 19:33:01 10° NNE
ATLAS 3B R/B 3.4 19:25:01 10° NW 19:31:53 55° WSW 19:39:01 10° SSE
Cosmos 2279 Rocket 3.9 19:26:12 10° S 19:32:23 84° E 19:38:37 10° N
SPOT 1/Viking Rocket 4.4 19:33:39 20° ESE 19:36:29 35° ENE 19:41:12 10° N
MOS 1 4.5 19:31:45 10° S 19:37:23 74° WSW 19:43:03 10° NNW
Cosmos-2242 3.4 19:35:48 19° SSE 19:38:34 43° E 19:42:40 10° NNE
Cosmos 1980 3.7 19:34:06 10° NNW 19:39:49 85° WSW 19:44:11 18° SSE
USA 215 4.0 19:34:16 12° E 19:39:52 45° NNE 19:46:01 10° NW
SL-16 R/B 3.0 19:35:10 10° NNW 19:40:25 36° NE 19:43:26 22° ESE
Cosmos 2151 3.0 19:37:26 10° N 19:41:43 62° E 19:44:10 24° SSE
SPOT 3 Rocket 3.6 19:40:39 20° SSE 19:44:18 68° ENE 19:49:27 10° N
FALCON 9 DEB 2.7 19:41:21 10° SW 19:44:25 84° SE 19:46:41 17° ENE
COSMOS 2455 3.2 19:42:13 10° S 19:47:44 39° ESE 19:53:16 10° NE
SL-4 R/B 2.1 19:47:00 10° SW 19:51:20 79° SSE 19:56:01 10° ENE
Cosmos 2219 Rocket 4.4 19:49:46 10° NW 19:54:01 22° W 19:58:14 10° SSW
BREEZE M DEB (TANK) 3.8 19:51:06 10° SSW 19:54:28 48° SE 20:04:02 10° ENE
ERS-1 Rocket 4.2 19:53:53 22° E 19:55:26 26° ENE 19:59:34 10° N
IGS 5A 3.3 19:54:21 30° SSE 19:56:22 79° ENE 20:00:32 10° N
OBJECT-B 3.4 19:55:18 10° SW 19:57:40 19° W 20:00:02 10° NW
Landsat 7 3.8 19:55:13 28° SSE 19:57:44 73° ENE 20:02:30 10° N
Cosmos 1076 Rocket 4.4 19:53:42 10° NNW 19:57:53 47° W 20:01:45 11° SSW
Cosmos 2266 Rocket 4.0 19:52:11 10° N 19:58:35 72° E 20:02:36 23° SSE
ATLAS 5 CENTAUR R/B 3.6 19:59:09 10° WSW 20:00:13 12° SW 20:01:00 11° SSW
Timation 1 Rocket 4.5 19:57:02 10° S 20:02:45 50° ESE 20:08:29 10° NE
Cosmos 2221 4.3 20:05:05 17° ENE 20:05:05 17° ENE 20:07:06 10° NE
ARIANE 5 R/B 3.2 20:04:04 35° ESE 20:05:05 41° ENE 20:09:13 10° N
Cosmos 2344 4.5 19:58:43 10° WSW 20:05:54 50° NW 20:13:44 10° NE
USA 245 3.3 20:06:00 46° E 20:06:08 47° ENE 20:09:07 10° N
Cosmos 407 Rocket 3.9 20:01:27 10° SSW 20:06:31 64° WNW 20:11:41 10° NNE
MetOp-B 4.1 20:09:17 29° SSE 20:12:07 89° ENE 20:17:31 10° NNW
Meteor 2-3 Rocket 3.7 20:08:48 10° NNW 20:14:34 83° W 20:17:46 27° S
Meteor 1-27 4.2 20:14:09 21° S 20:18:09 79° E 20:24:00 10° NNE
Cosmos 44 Rocket 3.3 20:13:16 10° SSW 20:18:13 60° ESE 20:23:21 10° NE
Cosmos 1140 Rocket 4.1 20:14:48 10° SW 20:19:49 55° WNW 20:24:53 10° NNE
Cosmos 1954 Rocket 3.8 20:19:29 15° SSW 20:23:50 86° ESE 20:29:02 10° NNE
CZ-2C R/B 3.7 20:20:46 10° N 20:25:12 76° WNW 20:27:43 25° SSW
Timation 2 Rocket 4.3 20:20:21 10° SW 20:26:53 69° WNW 20:33:12 10° NNE
Cosmos 2237 Rocket 3.3 20:22:16 10° NW 20:27:26 38° WSW 20:30:47 19° SSW
Meteor 2-15 4.5 20:29:12 42° SE 20:31:00 57° E 20:36:55 10° NNE
Cosmos 2263 Rocket 3.6 20:34:38 22° ENE 20:34:38 22° ENE 20:37:24 10° NE
Spot 2 Rocket 3.4 20:32:07 50° SSE 20:33:30 84° ENE 20:38:36 10° NNW
CARTOSAT-1 3.4 20:33:27 66° ESE 20:33:49 71° ENE 20:38:08 10° N
BREEZE M DEB (TANK) 3.3 20:28:52 10° W 20:35:28 48° NNW 20:36:34 32° NE
Cosmos 1766 Rocket 3.4 20:31:25 10° N 20:35:46 85° W 20:36:22 66° S
Cosmos 2227 Rocket 3.1 20:36:12 10° SW 20:41:41 49° WNW 20:47:12 10° NNE
FALCON 9 DEB 4.4 20:38:51 10° W 20:41:38 34° NNW 20:41:38 34° NNW
Cosmos 2082 3.6 20:37:15 17° SSW 20:41:42 88° WNW 20:47:22 10° NNE
Okean 3 Rocket 3.8 20:40:26 10° NNW 20:44:56 69° W 20:45:39 58° SSW
Lacrosse 5 rocket 3.5 20:44:53 10° NNW 20:48:18 22° NNE 20:49:58 18° NE
Cosmos 1869 3.8 20:47:58 51° WSW 20:48:30 56° WNW 20:52:23 10° N
Cosmos 2297 Rocket 3.7 20:43:21 10° WSW 20:48:31 36° NW 20:53:43 10° NNE
Resurs 01 Rocket 3.5 20:46:10 17° SW 20:48:31 25° W 20:52:15 10° NW
Cosmos 1553 Rocket 4.2 20:48:27 46° ESE 20:48:52 46° E 20:54:41 10° NNE
Meteor 1-4 Rocket 3.3 20:50:30 49° NW 20:50:30 49° NW 20:53:39 10° N
Cosmos 468 Rocket 3.8 20:46:04 10° NNW 20:51:14 80° ENE 20:51:46 70° SE
Cosmos 1603 4.5 20:49:49 10° NNW 20:55:07 38° NE 20:55:59 35° ENE
Cosmos 841 Rocket 4.1 20:51:05 10° N 20:56:02 42° ENE 20:56:15 42° ENE
Terra 1.8 21:03:52 72° NE 21:03:52 72° NE 21:08:28 10° N
Cosmos 1763 Rocket 3.3 20:58:59 10° NNW 21:04:04 83° WSW 21:04:17 80° SSW
Cosmos 540 Rocket 3.6 21:06:46 10° NNW 21:11:41 63° NE 21:11:41 63° NE
Cosmos 921 Rocket 4.1 21:09:04 10° N 21:12:21 37° NNE 21:12:21 37° NNE
SPOT 5 3.0 21:14:08 64° W 21:14:08 64° W 21:18:51 10° NNW
Meteor 2-2 Rocket 4.2 21:15:41 63° SSW 21:16:38 80° W 21:22:23 10° N
NOSS 3-1 (C) 4.0 21:10:29 10° NW 21:18:04 88° NE 21:20:23 53° SE
Cosmos 1842 Rocket 4.0 21:20:26 60° NW 21:20:26 60° NW 21:24:21 10° N
USA 215 3.1 21:21:36 63° SSE 21:22:37 76° SW 21:29:12 10° NW
SL-16 R/B 3.1 21:19:19 10° NW 21:24:31 37° WSW 21:25:19 36° SW
SL-08 ROCKET BODY 4.2 21:25:10 10° N 21:31:13 81° W 21:31:36 76° SW
SL-4 R/B 3.5 21:27:04 10° W 21:31:22 40° NNW 21:33:32 25° NE
COSMOS 2455 4.0 21:28:00 10° WSW 21:33:38 41° NW 21:39:19 10° NNE
ERS-1 Rocket 3.8 21:33:53 41° WSW 21:34:00 41° W 21:38:47 10° NNW
Cosmos 2227 4.3 21:40:44 69° NE 21:40:44 69° NE 21:45:48 10° NNE
Cosmos 2221 3.8 21:41:54 37° WNW 21:41:54 37° WNW 21:45:23 10° N
Sich 1 4.5 21:38:59 10° N 21:41:28 32° NNE 21:41:28 32° NNE
Cosmos 1943 3.3 21:45:01 10° NNW 21:50:06 74° NNW 21:50:06 74° NNW
Cosmos 1745 Rocket 3.9 21:47:01 10° N 21:53:20 79° W 21:53:25 79° WSW
SeaSat 1 3.9 21:48:50 10° NE 21:51:18 29° NE 21:51:18 29° NE
Cosmos 1570 Rocket 4.4 21:48:51 10° NNW 21:53:15 62° NNW 21:53:15 62° NNW
Cosmos 1709 Rocket 4.0 21:52:22 10° N 21:58:09 66° NE 21:58:09 66° NE
S3M 4.1 22:05:25 67° W 22:05:45 68° W 22:12:10 10° N
Cosmos 883 Rocket 4.5 22:06:43 74° NE 22:06:43 74° NE 22:12:31 10° N
Cosmos 2263 Rocket 2.8 22:16:16 48° WNW 22:16:28 49° WNW 22:21:52 10° NNE
USA 229 DEB 4.1 22:20:01 10° NW 22:27:01 56° WSW 22:27:01 56° WSW
USA 229 4.1 22:20:07 10° NW 22:27:07 57° WSW 22:27:07 57° WSW
Lacrosse 5 rocket 3.5 22:23:39 10° NW 22:25:35 26° NW 22:25:35 26° NW
Cosmos 1844 Rocket 4.0 22:30:56 30° NE 22:30:56 30° NE 22:33:55 10° NE
ALOS 2 4.3 22:35:37 30° N 22:35:37 30° N 22:37:56 10° N
Terra 4.3 22:42:44 13° WNW 22:42:44 13° WNW 22:44:12 10° WNW
NOSS 3-1 (A) 4.4 22:37:49 10° NW 22:45:03 51° WSW 22:45:03 51° WSW
Cosmos 2154 Rocket 4.5 22:58:29 10° N 23:04:10 55° NE 23:04:10 55° NE
SJ 16-02 4.2 23:17:22 11° ENE 23:17:22 11° ENE 23:17:36 10° ENE
Cosmos 2184 Rocket 4.2 23:09:33 10° N 23:14:58 67° NNW 23:14:58 67° NNW
Cosmos 2278 Rocket 4.2 23:19:29 18° ENE 23:19:29 18° ENE 23:21:52 10° NE
ATLAS 5 CENTAUR R/B 3.5 23:20:36 10° NNW 23:25:39 37° NE 23:27:06 32° ENE
SeaSat 1 4.2 23:26:56 10° N 23:30:54 25° NW 23:31:05 25° NW
Cosmos 1844 4.3 23:41:40 52° NNW 23:41:40 52° NNW 23:46:24 10° NNE
USA 281 3.2 23:43:08 78° NE 23:43:08 78° NE 23:49:34 10° NNW
COSMOS 2406 4.1 23:39:30 10° NNW 23:44:54 43° ENE 23:44:54 43° ENE
Gbstr 26 Del rocket 4.3 23:53:47 56° NE 23:53:47 56° NE 23:58:05 10° ENE
